This is the latest recevied weather packets stored in our database for station/object SQ6ILB-11. If no packets are shown the sender has not sent any weather packets the latest 10 day(s).
| Time | Temp. | Humidity | Pressure | Rain* | Wind** | Luminosity | Snow |
|---|---|---|---|---|---|---|---|
| 1787869579 | 19.44° C | 56% | 988.3 hPa | - | - | - | - |
| 1787868679 | 19.44° C | 56% | 988.7 hPa | - | - | - | - |
| 1787867779 | 20° C | 58% | 988.8 hPa | - | - | - | - |
| 1787866879 | 20° C | 56% | 989 hPa | - | - | - | - |
| 1787865979 | 20° C | 56% | 989 hPa | - | - | - | - |
| 1787865078 | 20.56° C | 55% | 988.9 hPa | - | - | - | - |
| 1787864178 | 21.11° C | 55% | 989.1 hPa | - | - | - | - |
| 1787863278 | 21.11° C | 57% | 989 hPa | - | - | - | - |
| 1787862378 | 21.67° C | 55% | 989 hPa | - | - | - | - |
| 1787861478 | 21.67° C | 57% | 989.1 hPa | - | - | - | - |
| 1787860578 | 21.67° C | 55% | 989.2 hPa | - | - | - | - |
| 1787859678 | 22.22° C | 54% | 989.2 hPa | - | - | - | - |
| 1787858778 | 22.22° C | 53% | 989.1 hPa | - | - | - | - |
| 1787857877 | 22.78° C | 50% | 989.2 hPa | - | - | - | - |
| 1787856977 | 22.78° C | 55% | 989.3 hPa | - | - | - | - |
| 1787856077 | 23.33° C | 54% | 989.2 hPa | - | - | - | - |
| 1787855177 | 23.89° C | 54% | 989.2 hPa | - | - | - | - |
| 1787854277 | 23.89° C | 53% | 989.3 hPa | - | - | - | - |
| 1787853377 | 24.44° C | 53% | 989.4 hPa | - | - | - | - |
| 1787852476 | 24.44° C | 52% | 989.6 hPa | - | - | - | - |
| 1787851576 | 25° C | 51% | 989.6 hPa | - | - | - | - |
| 1787850676 | 25.56° C | 51% | 989.7 hPa | - | - | - | - |
| 1787849776 | 25.56° C | 49% | 989.9 hPa | - | - | - | - |
| 1787848876 | 26.11° C | 48% | 989.8 hPa | - | - | - | - |
| 1787847976 | 26.67° C | 46% | 989.5 hPa | - | - | - | - |
* Rain since midnight (hover to see other rain measurements)
** Current wind speed in m/s (hover to see current wind gust speed)